[Iaude] MPEC G198: 2024 GN5 [a=1.24,e=0.17,i=2.7,H=25.2]
    mpec at cfa.harvard.edu 
    mpec at cfa.harvard.edu
       
    Sun Apr 14 03:47:35 EDT 2024
    
    
  
M.P.E.C. 2024-G198                               Issued 2024 April 14, 07:46 UT
     The Minor Planet Electronic Circulars contain information on unusual
         minor planets, routine data on comets and natural satellites,
         and occasional editorial announcements.  They are published
    on behalf of Division F of the International Astronomical Union by the
          Minor Planet Center, Smithsonian Astrophysical Observatory,
                          Cambridge, MA 02138, U.S.A.
			  
             Prepared using the Tamkin Foundation Computer Network
                              MPC at CFA.HARVARD.EDU
            URL https://www.minorplanetcenter.net/    ISSN 1523-6714
                                    2024 GN5                                    
Observations:
     K24G05N*1C2024 04 12.47626416 28 40.368+04 55 02.96         21.86GVEG198G96
     K24G05N 1C2024 04 12.48144716 28 41.869+04 55 03.79         22.12GVEG198G96
     K24G05N 1C2024 04 12.48662316 28 43.417+04 55 04.15         21.72GVEG198G96
     K24G05N 1C2024 04 12.49179216 28 44.969+04 55 05.52         22.02GVEG198G96
     K24G05N 1C2024 04 12.49804416 28 46.900+04 55 06.70         21.22GVEG198G96
     K24G05N 1C2024 04 12.49880716 28 47.080+04 55 06.50               VEG198G96
     K24G05N 1C2024 04 12.50035716 28 47.490+04 55 06.80               VEG198G96
     K24G05N KC2024 04 13.36793416 33 39.035+04 57 18.43         21.89GVEG198V06
     K24G05N KC2024 04 13.36944716 33 39.496+04 57 18.58         21.72GVEG198V06
     K24G05N KC2024 04 13.37096116 33 39.946+04 57 18.76         21.33GVEG198V06
     K24G05N  C2024 04 13.46295616 34 07.652+04 57 29.92         21.2 GVEG198H01
     K24G05N  C2024 04 13.46942616 34 09.624+04 57 30.71         21.3 GVEG198H01
     K24G05N  C2024 04 13.47747416 34 12.086+04 57 31.73         21.4 GVEG198H01
     K24G05N  C2024 04 13.48515316 34 14.443+04 57 32.76         21.9 GVEG198H01
     K24G05N 7C2024 04 14.12507116 37 53.510+04 58 49.15         22.4 GVEG198Z84
     K24G05N 7C2024 04 14.13923516 37 57.939+04 58 50.57         22.8 GVEG198Z84
Observer details:
G96 Mt. Lemmon Survey.  Observer H. Groeller.  Measurers T. Beuden, V. F.
    Carvajal, D. Fay, J. B. Fazekas, D. C. Fuls, A. R. Gibbs, A. D. Grauer, H.
    Groeller, J. K. Hogan, R. A. Kowalski, S. M. Larson, G. J. Leonard, D.
    Rankin, R. L. Seaman, F. C. Shelly, K. W. Wierzchos.  1.5-m reflector +
    10K CCD.
H01 Magdalena Ridge Observatory, Socorro.  Observers W. H. Ryan, E. V. Ryan.
    Measurer W. H. Ryan.  2.4-m f/8.9 Ritchey-Chretien + CCD.
V06 Catalina Sky Survey-Kuiper.  Observers V. F. Carvajal, D. Rankin.
    Measurers T. Beuden, V. F. Carvajal, D. Fay, J. B. Fazekas, D. C. Fuls, A.
    R. Gibbs, A. D. Grauer, H. Groeller, J. K. Hogan, R. A. Kowalski, S. M.
    Larson, G. J. Leonard, D. Rankin, R. L. Seaman, F. C. Shelly, K. W.
    Wierzchos.  1.55-m reflector + 1K CCD.
Z84 Calar Alto-Schmidt.  Observers F. Ocana, R. Kresken, M. Micheli, L.
    Conversi.  Measurers F. Ocana, M. Micheli.  0.8-m f/3 Schmidt + CCD.
Orbital elements:
2024 GN5                                                 Earth MOID = 0.0155 AU
Epoch 2024 Mar. 31.0 TT = JDT 2460400.5                 MPC                     
M 319.79771              (2000.0)            P               Q                  
n   0.71186987     Peri.  163.90702     -0.34718519     +0.93658966             
a   1.2422308      Node    85.75851     -0.86558487     -0.30052260             
e   0.1726663      Incl.    2.73368     -0.36086738     -0.18023864             
P   1.38           H   25.24          G   0.15           U   8                  
Residuals in seconds of arc
240412 G96  0.4+  0.2+    240412 G96  0.3-  0.3+    240413 H01  0.0   0.0
240412 G96  0.1-  0.2+    240413 V06  0.1+  0.0     240413 H01  0.0   0.1+
240412 G96  0.0   0.2-    240413 V06  0.1+  0.1-    240414 Z84  0.2-  0.1+
240412 G96  0.2+  0.3+    240413 V06  0.1-  0.1-    240414 Z84  0.1+  0.1-
240412 G96  1.2+  0.6+    240413 H01  0.0   0.0
240412 G96  0.5+  0.2+    240413 H01  0.0   0.0
Ephemeris:
2024 GN5                 a,e,i = 1.24, 0.17, 3                   q = 1.0277
Date    TT    R. A. (2000) Decl.     Delta      r    Elong.  Phase     V
2024 03 15    14 35 45.4 +02 33 52   0.1856  1.1356   136.1    37.4    23.4
...
2024 03 30    15 26 25.3 +03 52 16   0.1339  1.0995   136.4    38.8    22.6
...
2024 04 07    16 00 51.0 +04 34 39   0.1121  1.0824   134.4    41.4    22.3
...
2024 04 13    16 31 33.9 +04 57 07   0.09842 1.0707   131.7    44.4    22.1
2024 04 14    16 37 10.2 +04 59 23   0.09638 1.0688   131.1    45.0    22.0
2024 04 15    16 42 55.4 +05 01 07   0.09442 1.0670   130.5    45.6    22.0
...
2024 04 21    17 20 43.4 +04 58 06   0.08415 1.0569   126.3    50.0    21.8
...
2024 04 29    18 19 31.6 +04 09 46   0.07475 1.0455   119.2    57.2    21.8
...
2024 05 14    20 19 36.6 +00 24 45   0.07104 1.0314   105.1    71.1    22.1
A. U. Tomatic                (C) Copyright 2024 MPC           M.P.E.C. 2024-G198
    
    
More information about the Iaude
mailing list